[[{"header":{"parameterUnit":"m.s-1","parameterCategory":1,"la1":30.2991,"la2":30.254,"lo1":-89.0895,"lo2":-89.0444,"dy":0.0017,"dx":0.0017,"nx":28,"ny":28,"refTime":"2025-07-29T21:00:00:Z","depth":0,"parameterNumber":2,"parameterNumberName":"U-component_of_WINDS"},"data":[0,0,0,0,0,0,0,0,0,0,0,0,0,0,0,0,0,0,0,0,0,0,0,0,0,0,0,0,0,0,0,0,0,0,0,0,0,0,0,0,0,0,0,0,0,0,0,0,0,0,0,0,0,0,0,0,0,0,1.4368,1.4369,0,1.4479,1.4481,1.4482,1.4457,1.4455,1.4453,1.4451,1.4573,1.4578,1.4583,0,0,0,0,0,0,0,0,0,0,0,0,0,1.4141,1.4145,1.4368,1.4369,1.4371,1.4479,1.4481,1.4482,1.4458,1.4455,1.4452,1.445,1.4571,1.4577,1.4583,0,0,0,0,0,0,0,0,0,0,0,0,0,1.4245,1.4147,1.4368,1.4371,1.4373,1.4479,1.4481,1.4483,1.4458,1.4455,1.4452,1.4449,1.4569,1.4576,1.4584,1.4696,0,0,1.4608,1.4611,0,0,0,0,0,0,0,0,1.4239,1.4253,1.4369,1.4371,1.4373,1.4451,1.4445,1.4555,1.4459,1.4426,1.4451,1.4447,1.4535,1.4546,1.4574,1.4702,1.4707,1.4609,1.4614,1.4617,1.4619,0,0,0,0,0,0,0,1.4232,1.4249,1.4412,1.4371,1.4373,1.437,1.4381,1.4466,1.4497,1.4429,1.4427,1.444,1.4536,1.4566,1.4576,1.4709,1.4609,1.4616,1.462,1.4623,1.4937,1.494,0,0,0,0,0,0,1.4222,1.4243,1.4409,1.4416,1.4297,1.4376,1.4389,1.4429,1.4496,1.4503,1.4443,1.4439,1.4554,1.4567,1.4581,1.4718,1.4617,1.4624,1.4629,1.4933,1.4937,1.4941,0,0,0,0,0,0,1.4217,1.4237,1.4404,1.4329,1.435,1.4384,1.4429,1.4433,1.4464,1.4507,1.4513,1.4468,1.4552,1.457,1.4667,1.4722,1.4628,1.4635,1.4929,1.4934,1.4939,1.4992,0,0,0,0,0,0,1.4211,1.4236,1.4277,1.433,1.4354,1.4487,1.4432,1.4438,1.4476,1.4472,1.4532,1.4539,1.4551,1.4656,1.4675,1.4731,1.4641,1.4924,1.4931,1.4938,1.4986,1.4999,1.501,0,0,0,0,0,1.4203,1.4289,1.4279,1.4299,1.4406,1.449,1.4504,1.4515,1.4481,1.4524,1.4552,1.4537,1.4712,1.4666,1.4688,1.4746,1.4921,1.4929,1.4937,1.498,1.4996,1.5009,0,0,0,0,0,0,1.4244,1.4296,1.4286,1.439,1.4436,1.4486,1.4541,1.4531,1.4589,1.4583,1.4595,1.4609,1.4709,1.4737,1.4685,1.4859,1.4812,1.4825,1.4837,1.4853,1.4864,1.4857,1.4647,0,0,0,0,0,1.4264,1.4326,1.4369,1.4458,1.4481,1.4507,1.4544,1.4548,1.4596,1.4616,1.4651,1.4701,1.4768,1.4811,1.4875,1.4989,1.5003,1.504,1.5052,1.5061,1.5073,1.5138,1.5156,1.4968,1.4968,1.4968,0,0,1.4309,1.4345,1.4384,1.4467,1.4503,1.4569,1.4523,1.4595,1.4646,1.4628,1.4723,1.475,1.4807,1.4914,1.4963,1.494,1.5128,1.5072,1.5079,1.5086,1.5148,1.5166,1.5182,1.4974,1.4973,1.4972,0,0,1.4424,1.4456,1.4534,1.4571,1.4624,1.4641,1.466,1.4711,1.4728,1.4822,1.4811,1.4872,1.4985,1.5027,1.5063,1.5193,1.5183,1.5214,1.5278,1.534,1.5355,1.5369,1.5418,1.5435,1.5225,1.5225,1.5225,0,1.4474,1.4571,1.4577,1.465,1.4688,1.4672,1.4753,1.4788,1.4861,1.4889,1.4862,1.5004,1.5041,1.5159,1.519,1.5219,1.5243,1.5208,1.5352,1.5366,1.5378,1.5425,1.5443,1.5228,1.5228,1.5228,1.5227,0,1.4631,1.4699,1.4755,1.4824,1.4868,1.4945,1.4964,1.5008,1.5008,1.5028,1.5126,1.5169,1.5241,1.5269,1.527,1.5387,1.5372,1.5348,1.5302,1.5399,1.5444,1.5462,1.5233,1.5232,1.5231,1.523,0,0,1.4777,1.4846,1.4867,1.4898,1.4956,1.501,1.5087,1.5155,1.5194,1.5245,1.5312,1.5408,1.5386,1.5427,1.5433,1.5487,1.5591,1.5458,1.5459,1.5483,1.5726,1.5746,1.5766,1.5584,1.5587,1.559,1.5722,0,1.49,1.5032,1.5039,1.5161,1.5226,1.5211,1.5278,1.5322,1.5343,1.5403,1.5426,1.5495,1.546,1.5485,1.5538,1.5567,1.5641,1.5557,1.5649,1.5653,1.5638,1.5789,1.581,1.5933,1.574,1.5742,1.5745,0,1.5061,1.5114,1.5242,1.5291,1.5318,1.5378,1.5442,1.5498,1.5549,1.556,1.5605,1.5603,1.5685,1.5633,1.5747,1.569,1.5728,1.5748,1.5753,1.5765,1.5707,1.5807,1.5972,1.5992,1.5772,1.577,1.5768,0,1.5158,1.5262,1.5352,1.5379,1.5438,1.5481,1.5508,1.5555,1.5596,1.5652,1.568,1.5746,1.5783,1.5835,1.5852,1.5812,1.5967,1.5916,1.5982,1.5982,1.6017,1.6015,1.6193,1.6037,1.6037,1.6036,1.6036,0,1.5296,1.5376,1.5397,1.5453,1.5542,1.5549,1.5638,1.5663,1.5705,1.5767,1.5759,1.5818,1.5835,1.5898,1.5912,1.6006,1.6022,1.6036,1.604,1.6039,1.6038,1.6066,1.6059,1.6041,1.604,1.6039,1.6038,0,1.5421,1.5438,1.5536,1.5583,1.5596,1.566,1.5702,1.5757,1.5776,1.5855,1.5874,1.5905,1.5979,1.6,1.6089,1.6098,1.621,1.6204,1.6192,1.6193,1.6259,1.6254,1.6464,1.6493,1.6315,1.6317,1.6318,0,1.551,1.557,1.5623,1.5663,1.5691,1.5756,1.5797,1.5807,1.5851,1.5913,1.5961,1.6033,1.6092,1.6211,1.6243,1.6312,1.631,1.6378,1.632,1.6318,1.6314,1.6312,1.6319,1.6391,1.6392,1.6394,1.6395,0,1.5666,1.5671,1.5729,1.5791,1.5839,1.5889,1.5937,1.5971,1.5988,1.6038,1.6112,1.6157,1.6247,1.632,1.639,1.6421,1.6413,1.6413,1.6432,1.6434,1.6425,1.6433,1.6226,1.6409,1.6407,1.6406,1.6406,1.6405,1.5777,1.5831,1.5876,1.5942,1.5978,1.6023,1.6077,1.6102,1.6163,1.6235,1.6238,1.6319,1.637,1.6462,1.6496,1.6562,1.6542,1.657,1.6577,1.6585,1.6591,1.6412,1.6574,1.6574,1.6574,1.6573,1.6573,0,1.5935,1.5963,1.6023,1.6089,1.6141,1.6124,1.6177,1.6223,1.6293,1.6339,1.6396,1.6483,1.6554,1.659,1.6661,1.6707,1.6706,1.6726,1.6724,1.6732,1.6604,1.6581,1.6726,1.6726,1.6726,1.6726,1.6726,1.6726,1.6024,1.6114,1.6124,1.6233,1.6261,1.6339,1.637,1.6413,1.645,1.6545,1.6603,1.6625,1.6669,1.6743,1.6808,1.6817,1.6846,1.6869,1.6877,1.6757,1.6741,1.6726,1.6705,1.6874,1.6874,1.7,1.7001,1.7002]},{"header":{"parameterUnit":"m.s-1","parameterCategory":1,"la1":30.2991,"la2":30.254,"lo1":-89.0895,"lo2":-89.0444,"dy":0.0017,"dx":0.0017,"nx":28,"ny":28,"refTime":"2025-07-29T21:00:00:Z","depth":0,"parameterNumber":3,"parameterNumberName":"V-component_of_WINDS"},"data":[0,0,0,0,0,0,0,0,0,0,0,0,0,0,0,0,0,0,0,0,0,0,0,0,0,0,0,0,0,0,0,0,0,0,0,0,0,0,0,0,0,0,0,0,0,0,0,0,0,0,0,0,0,0,0,0,0,0,0.298,0.2982,0,0.3144,0.3146,0.3148,0.3186,0.3185,0.3184,0.3183,0.3355,0.3361,0.3366,0,0,0,0,0,0,0,0,0,0,0,0,0,0.2703,0.2708,0.298,0.2982,0.2984,0.3144,0.3146,0.3149,0.3186,0.3185,0.3184,0.3182,0.3353,0.336,0.3367,0,0,0,0,0,0,0,0,0,0,0,0,0,0.2841,0.271,0.298,0.3022,0.3028,0.3144,0.3146,0.3149,0.3187,0.3185,0.3183,0.3182,0.3351,0.3359,0.3368,0.3454,0,0,0.3393,0.3397,0,0,0,0,0,0,0,0,0.2833,0.2851,0.3014,0.302,0.3026,0.3143,0.3112,0.3252,0.3187,0.3127,0.3183,0.3181,0.3286,0.33,0.3335,0.3462,0.347,0.3394,0.3399,0.3403,0.3405,0,0,0,0,0,0,0,0.2824,0.2845,0.3045,0.3016,0.3024,0.3034,0.3052,0.3139,0.3214,0.3132,0.3135,0.3153,0.3289,0.3326,0.3339,0.3472,0.3394,0.3402,0.3407,0.341,0.368,0.3682,0,0,0,0,0,0,0.2806,0.2836,0.304,0.305,0.2923,0.3041,0.3061,0.3107,0.3213,0.3228,0.3155,0.3155,0.3313,0.3329,0.3345,0.3454,0.3403,0.3411,0.3416,0.3678,0.368,0.3682,0,0,0,0,0,0,0.28,0.2824,0.3033,0.2944,0.2972,0.3047,0.3099,0.3111,0.3149,0.3231,0.3245,0.3179,0.3312,0.3333,0.3427,0.3461,0.3415,0.3422,0.3675,0.3678,0.3681,0.3672,0,0,0,0,0,0,0.2792,0.2822,0.2854,0.2945,0.2976,0.3111,0.3101,0.3116,0.3163,0.3164,0.3257,0.3271,0.3312,0.3414,0.3435,0.3472,0.3429,0.3672,0.3677,0.368,0.367,0.3675,0.3679,0,0,0,0,0,0.2782,0.2846,0.2856,0.288,0.3019,0.3113,0.3131,0.3177,0.3165,0.3199,0.3252,0.3268,0.3453,0.3423,0.3447,0.3487,0.3671,0.3675,0.368,0.3668,0.3674,0.3679,0,0,0,0,0,0,0.276,0.2859,0.2871,0.2966,0.303,0.3119,0.3164,0.3181,0.3252,0.3251,0.3305,0.3326,0.3416,0.3461,0.3425,0.3576,0.3562,0.3571,0.3544,0.355,0.3555,0.3543,0.3436,0,0,0,0,0,0.2766,0.2833,0.2916,0.2992,0.3024,0.3088,0.3131,0.316,0.323,0.3258,0.3318,0.3386,0.346,0.3507,0.358,0.3676,0.3698,0.3715,0.3719,0.3723,0.3731,0.3786,0.3796,0.3698,0.3698,0.3698,0,0,0.278,0.2842,0.2881,0.2989,0.3043,0.3112,0.3111,0.3185,0.3237,0.327,0.3362,0.3407,0.3487,0.3582,0.3628,0.3623,0.3763,0.3729,0.3731,0.3738,0.3792,0.3801,0.381,0.3701,0.37,0.37,0,0,0.284,0.2893,0.2962,0.3016,0.3096,0.3138,0.3155,0.3241,0.3272,0.3364,0.339,0.3454,0.358,0.3636,0.3681,0.3761,0.3779,0.3783,0.3807,0.386,0.3868,0.3875,0.3905,0.3915,0.3791,0.3791,0.3791,0,0.2847,0.2952,0.2996,0.3068,0.3116,0.3146,0.3218,0.3268,0.3368,0.3401,0.3393,0.3551,0.3607,0.3716,0.3736,0.3771,0.3793,0.3774,0.3863,0.3871,0.3878,0.3907,0.3918,0.3791,0.3791,0.3791,0.3791,0,0.2957,0.3029,0.3076,0.317,0.3223,0.3294,0.335,0.3398,0.3422,0.3466,0.356,0.3628,0.3715,0.3742,0.3767,0.3856,0.385,0.3852,0.3839,0.3887,0.3915,0.3927,0.3791,0.3791,0.3791,0.3791,0,0,0.3011,0.3127,0.3144,0.3187,0.3278,0.3335,0.3408,0.3491,0.3532,0.36,0.3664,0.3768,0.3771,0.3821,0.3853,0.3899,0.396,0.3896,0.3899,0.3907,0.4063,0.4062,0.4074,0.3971,0.3973,0.3975,0.4057,0,0.3083,0.3213,0.3255,0.3364,0.3432,0.3461,0.3525,0.3588,0.363,0.3694,0.3741,0.3815,0.3812,0.3843,0.389,0.3942,0.3992,0.3937,0.4033,0.4036,0.4014,0.4089,0.4089,0.4162,0.4068,0.407,0.4071,0,0.3186,0.3254,0.3369,0.3451,0.3481,0.3537,0.3617,0.3678,0.375,0.3777,0.3833,0.3861,0.394,0.392,0.403,0.3991,0.4033,0.4064,0.4068,0.4081,0.4058,0.4105,0.4187,0.4198,0.4089,0.4088,0.4086,0,0.3215,0.3335,0.342,0.3456,0.3553,0.3592,0.3634,0.3705,0.3752,0.3822,0.3854,0.3932,0.3976,0.4037,0.4085,0.4066,0.4191,0.4176,0.4218,0.4217,0.4245,0.4243,0.4336,0.4268,0.4268,0.4268,0.4268,0,0.3293,0.3362,0.3434,0.3486,0.3565,0.3613,0.369,0.3735,0.3797,0.386,0.389,0.3948,0.4007,0.4074,0.4112,0.4198,0.4217,0.4243,0.4253,0.4242,0.4238,0.4271,0.4268,0.4271,0.427,0.427,0.4269,0,0.3339,0.339,0.3484,0.3567,0.359,0.3645,0.3717,0.377,0.3812,0.3891,0.3912,0.3979,0.4059,0.4113,0.4215,0.4241,0.4335,0.4343,0.431,0.4316,0.4356,0.4352,0.4475,0.4494,0.4411,0.4412,0.4412,0,0.3387,0.3441,0.3529,0.3572,0.3614,0.3684,0.3732,0.378,0.3829,0.3915,0.3958,0.4039,0.4107,0.4233,0.4293,0.4371,0.4382,0.442,0.4395,0.4382,0.4385,0.4382,0.4388,0.4425,0.4425,0.4426,0.4426,0,0.3466,0.3488,0.3555,0.3631,0.3687,0.3749,0.3812,0.3846,0.3906,0.396,0.4041,0.4093,0.4197,0.4278,0.4362,0.4408,0.4428,0.4433,0.4448,0.4438,0.4417,0.443,0.4323,0.4431,0.443,0.443,0.443,0.443,0.3516,0.3565,0.3635,0.3709,0.3761,0.3819,0.3872,0.392,0.3988,0.4076,0.41,0.4185,0.4257,0.4371,0.4418,0.4486,0.4482,0.4503,0.4508,0.4513,0.4514,0.4404,0.4501,0.4501,0.4501,0.4501,0.4501,0,0.3598,0.3643,0.3711,0.3797,0.3855,0.3866,0.3936,0.3985,0.4059,0.4123,0.4188,0.4282,0.436,0.4425,0.4506,0.4548,0.456,0.4568,0.4567,0.4577,0.4512,0.4492,0.4558,0.4558,0.4558,0.4558,0.4558,0.4558,0.3647,0.3732,0.3762,0.3873,0.3919,0.4001,0.404,0.4094,0.4145,0.4248,0.4312,0.4353,0.4418,0.4504,0.4577,0.4594,0.4624,0.4631,0.465,0.4588,0.4582,0.4576,0.4557,0.4636,0.4636,0.471,0.4711,0.4711]}]]